Flag for U.S.A. Weather past 2 weeks in Mountain View, California, U.S.A.

Now
70 °F

Clear.


Feels Like: 74 °F
Forecast: 60 / 79 °F
Wind: 5 mph from Northwest

Location: Moffett Field

Current Time: Sep 1, 2014 at 10:18:31 PM

Latest Report: Sep 1, 2014 at 9:56 PM


Visibility: 10 mi

Pressure: 29.80 "Hg

Humidity: 71%

Dew point: 60 °F

Location of Mountain ViewLocation

Historic Weather in Mountain View — Graph

°F

Mountain View temperature yesterday

Maximum temperature yesterday: 78 °F (at 2:56 PM)
Minimum temperature yesterday: 61 °F (at 4:56 AM)
Average temperature yesterday: 69 °F

Past Weeks' High & Low Weather Summary

 TemperatureHumidityPressure
High84 °F (Sep 1, 3:56 PM)90% (Aug 28, 2:56 AM)30.09 "Hg (Aug 28, 2:56 AM)
Low59 °F (Aug 26, 5:56 AM)35% (Sep 1, 3:56 PM)29.76 "Hg (Sep 1, 5:56 PM)
Average68 °F70%29.92 "Hg
* Reported Aug 17 8:56 PM — Sep 1 8:56 PM, Mountain View, Weather by CustomWeather, © 2014

Note: Actual official high and low records may vary slightly from our data, if they occured in-between our weather recording intervals... More about our weather records

Advertising

Mountain View weather history for previous 24 hours

 ConditionsComfort  
Time TempWeatherWind HumidityBarometerVisibility
8:56 PM
Sep 1
70 °FClear.5 mph68%29.80 "Hg10 mi
7:56 PM72 °FSunny.5 mph66%29.78 "Hg10 mi
6:56 PM75 °FSunny.14 mph60%29.76 "Hg10 mi
5:56 PM80 °FSunny.15 mph51%29.76 "Hg10 mi
4:56 PM83 °FSunny.12 mph44%29.77 "Hg10 mi
3:56 PM84 °FSunny.14 mph35%29.78 "Hg10 mi
2:56 PM83 °FSunny.16 mph44%29.79 "Hg10 mi
1:56 PM81 °FSunny.9 mph44%29.81 "Hg10 mi
12:56 PM82 °FSunny.8 mph41%29.82 "Hg10 mi
11:56 AM78 °FSunny.6 mph50%29.84 "Hg10 mi
10:56 AM76 °FSunny.5 mph54%29.86 "Hg10 mi
9:56 AM69 °FSunny.No wind68%29.87 "Hg10 mi
8:56 AM68 °FSunny.No wind70%29.87 "Hg10 mi
7:56 AM64 °FSunny.No wind78%29.87 "Hg10 mi
6:56 AM61 °FClear.No wind81%29.86 "Hg10 mi
5:56 AM61 °FClear.No wind81%29.85 "Hg10 mi
4:56 AM62 °FClear.No wind80%29.85 "Hg10 mi
3:56 AM62 °FClear.No wind80%29.85 "Hg10 mi
2:56 AM63 °FClear.No wind81%29.85 "Hg10 mi
1:56 AM64 °FClear.No wind78%29.85 "Hg10 mi
12:56 AM64 °FClear.3 mph75%29.87 "Hg10 mi
11:56 PM
Aug 31
64 °FClear.5 mph78%29.87 "Hg10 mi
10:56 PM65 °FClear.5 mph76%29.87 "Hg10 mi
Weather by CustomWeather, © 2014

See weather overviewHow to use our weather pages